GPS BIIF-5

Last updated on Wed Nov 05 2025 00:02:34 GMT+0000 (Coordinated Universal Time)

1 39533U 14008A 25307.32370905 .00000103 00000+0 00000+0 0 9994 2 39533 53.6244 158.5327 0078467 226.1610 133.2845 2.00572090 85150
UTC large
Height (km)
Speed (km/s)
/
Latitude / Longitude
Inclination (degrees)
Orbital Period (minutes)
Azimuth
Elevation
Range (km)
Doppler Factor

Next 0 passes for location: London (51.5072 / 0.1276)

Sorry there are no passes over London.